BHS326 MYGF-MYNN

Flight info

Callsign BHS326
Flight time 0h 23m
Altitude 15000
Route BURBO
Aircraft B737/M-SDE2E3FGHIRWXY/LB1

Departure

Time 2026-05-08 21:25
Airport Grand Bahama International Airport (MYGF)

Arrival

Time 2026-05-08 21:48
Airport Lynden Pindling International Airport (MYNN)
Time Latitude Longitude Altitude Speed Heading
2026-05-08 21:05 26.54865 -78.69629 15 ft 0 kts 269°
2026-05-08 21:13 26.54865 -78.69630 15 ft 0 kts 269°
2026-05-08 21:16 26.54872 -78.69646 15 ft 4 kts 319°
2026-05-08 21:17 26.54899 -78.69667 15 ft 5 kts 315°
2026-05-08 21:17 26.54910 -78.69726 15 ft 10 kts 272°
2026-05-08 21:17 26.54912 -78.69810 15 ft 10 kts 271°
2026-05-08 21:17 26.54913 -78.69893 15 ft 10 kts 271°
2026-05-08 21:18 26.54915 -78.69974 15 ft 10 kts 271°
2026-05-08 21:18 26.54918 -78.70061 15 ft 13 kts 271°
2026-05-08 21:18 26.54921 -78.70172 15 ft 16 kts 271°
2026-05-08 21:18 26.54935 -78.70255 15 ft 10 kts 313°
2026-05-08 21:19 26.54965 -78.70319 15 ft 9 kts 276°
2026-05-08 21:19 26.54968 -78.70393 15 ft 9 kts 272°
2026-05-08 21:19 26.54971 -78.70476 15 ft 12 kts 272°
2026-05-08 21:19 26.54973 -78.70570 15 ft 12 kts 271°
2026-05-08 21:20 26.54977 -78.70661 15 ft 11 kts 272°
2026-05-08 21:20 26.54979 -78.70748 15 ft 11 kts 272°
2026-05-08 21:20 26.54982 -78.70834 15 ft 10 kts 271°
2026-05-08 21:20 26.54984 -78.70917 15 ft 10 kts 271°
2026-05-08 21:21 26.55000 -78.70993 15 ft 10 kts 314°
2026-05-08 21:21 26.55046 -78.71004 15 ft 0 kts
2026-05-08 21:22 26.55063 -78.71003 15 ft 5 kts
2026-05-08 21:22 26.55118 -78.71003 15 ft 8 kts 345°
2026-05-08 21:23 26.55140 -78.71011 15 ft 2 kts 356°
2026-05-08 21:23 26.55148 -78.71001 15 ft 2 kts 62°
2026-05-08 21:23 26.55152 -78.70995 15 ft 0 kts 62°
2026-05-08 21:23 26.55153 -78.70991 15 ft 0 kts 62°
2026-05-08 21:24 26.55154 -78.70989 15 ft 0 kts 62°
2026-05-08 21:24 26.55173 -78.70950 15 ft 16 kts 60°
2026-05-08 21:25 26.55366 -78.70563 15 ft 102 kts 61°
2026-05-08 21:25 26.55833 -78.69621 145 ft 165 kts 62°
2026-05-08 21:25 26.56398 -78.68413 812 ft 189 kts 64°
2026-05-08 21:25 26.56578 -78.66955 1688 ft 202 kts 102°
2026-05-08 21:26 26.55819 -78.65631 2580 ft 215 kts 139°
2026-05-08 21:26 26.54534 -78.64695 3304 ft 235 kts 148°
2026-05-08 21:26 26.53105 -78.63661 4033 ft 254 kts 147°
2026-05-08 21:26 26.51672 -78.62427 4709 ft 276 kts 136°
2026-05-08 21:27 26.50363 -78.60741 5429 ft 300 kts 128°
2026-05-08 21:27 26.49041 -78.58939 6166 ft 304 kts 130°
2026-05-08 21:27 26.47681 -78.57128 6898 ft 308 kts 129°
2026-05-08 21:27 26.46319 -78.55300 7624 ft 311 kts 129°
2026-05-08 21:28 26.44926 -78.53426 8358 ft 314 kts 129°
2026-05-08 21:28 26.43536 -78.51556 9054 ft 318 kts 129°
2026-05-08 21:28 26.42109 -78.49637 9738 ft 321 kts 129°
2026-05-08 21:28 26.40698 -78.47740 10407 ft 324 kts 129°
2026-05-08 21:29 26.39252 -78.45796 11089 ft 331 kts 129°
2026-05-08 21:29 26.37732 -78.43754 11776 ft 353 kts 129°
2026-05-08 21:29 26.36134 -78.41606 12382 ft 376 kts 129°
2026-05-08 21:29 26.34426 -78.39314 12875 ft 389 kts 129°
2026-05-08 21:30 26.32692 -78.36986 13376 ft 391 kts 129°
2026-05-08 21:30 26.31050 -78.34783 13848 ft 394 kts 130°
2026-05-08 21:30 26.29223 -78.32334 14370 ft 397 kts 130°
2026-05-08 21:30 26.27449 -78.29957 14771 ft 402 kts 130°
2026-05-08 21:31 26.25667 -78.27571 14788 ft 402 kts 130°
2026-05-08 21:31 26.23894 -78.25204 14856 ft 399 kts 131°
2026-05-08 21:31 26.21953 -78.22990 14930 ft 400 kts 138°
2026-05-08 21:31 26.19768 -78.21104 14981 ft 401 kts 147°
2026-05-08 21:32 26.17345 -78.19600 14982 ft 401 kts 153°
2026-05-08 21:32 26.14860 -78.18190 14981 ft 401 kts 153°
2026-05-08 21:32 26.12405 -78.16757 14981 ft 401 kts 152°
2026-05-08 21:32 26.09937 -78.15310 14981 ft 401 kts 152°
2026-05-08 21:33 26.07481 -78.13879 14982 ft 401 kts 152°
2026-05-08 21:33 26.04992 -78.12433 14981 ft 406 kts 152°
2026-05-08 21:33 26.02491 -78.10980 14981 ft 407 kts 152°
2026-05-08 21:33 26.00006 -78.09538 14981 ft 407 kts 152°
2026-05-08 21:34 25.97482 -78.08074 14981 ft 407 kts 152°
2026-05-08 21:34 25.95019 -78.06647 14981 ft 407 kts 152°
2026-05-08 21:34 25.92508 -78.05193 14981 ft 407 kts 152°
2026-05-08 21:34 25.90027 -78.03758 14981 ft 407 kts 152°
2026-05-08 21:35 25.87557 -78.02329 14981 ft 407 kts 152°
2026-05-08 21:35 25.85039 -78.00873 14981 ft 407 kts 152°
2026-05-08 21:35 25.82535 -77.99426 14981 ft 407 kts 152°
2026-05-08 21:35 25.80049 -77.97990 14981 ft 407 kts 152°
2026-05-08 21:36 25.77554 -77.96550 14981 ft 407 kts 152°
2026-05-08 21:36 25.75050 -77.95105 14979 ft 401 kts 152°
2026-05-08 21:36 25.72631 -77.93710 14981 ft 381 kts 152°
2026-05-08 21:36 25.70373 -77.92408 14905 ft 363 kts 152°
2026-05-08 21:37 25.68146 -77.91125 14501 ft 357 kts 152°
2026-05-08 21:37 25.65980 -77.89877 14006 ft 353 kts 152°
2026-05-08 21:37 25.63809 -77.88628 13505 ft 350 kts 152°
2026-05-08 21:37 25.61658 -77.87390 13005 ft 347 kts 152°
2026-05-08 21:38 25.59531 -77.86166 12505 ft 344 kts 152°
2026-05-08 21:38 25.57434 -77.84960 12010 ft 342 kts 152°
2026-05-08 21:38 25.55329 -77.83750 11563 ft 338 kts 152°
2026-05-08 21:38 25.53279 -77.82572 11116 ft 334 kts 152°
2026-05-08 21:39 25.51236 -77.81400 10667 ft 330 kts 152°
2026-05-08 21:39 25.49192 -77.80226 10212 ft 327 kts 152°
2026-05-08 21:39 25.47175 -77.79068 9759 ft 324 kts 152°
2026-05-08 21:39 25.45189 -77.77927 9309 ft 321 kts 152°
2026-05-08 21:40 25.43231 -77.76802 8857 ft 316 kts 152°
2026-05-08 21:40 25.41347 -77.75723 8404 ft 298 kts 152°
2026-05-08 21:40 25.39557 -77.74698 7955 ft 284 kts 152°
2026-05-08 21:41 25.36150 -77.72747 7077 ft 275 kts 152°
2026-05-08 21:41 25.34433 -77.71764 6683 ft 279 kts 152°
2026-05-08 21:41 25.32711 -77.70779 6281 ft 279 kts 152°
2026-05-08 21:41 25.31001 -77.69800 5883 ft 278 kts 152°
2026-05-08 21:42 25.29295 -77.68824 5485 ft 278 kts 152°
2026-05-08 21:42 25.27572 -77.67839 5082 ft 278 kts 152°
2026-05-08 21:42 25.25880 -77.66872 4674 ft 269 kts 152°
2026-05-08 21:42 25.24272 -77.65953 4278 ft 256 kts 152°
2026-05-08 21:43 25.22739 -77.65078 3975 ft 242 kts 152°
2026-05-08 21:43 25.21280 -77.64246 3690 ft 230 kts 152°
2026-05-08 21:43 25.19890 -77.63451 3485 ft 226 kts 152°
2026-05-08 21:43 25.18575 -77.62519 3269 ft 225 kts 137°
2026-05-08 21:44 25.17480 -77.61282 3061 ft 224 kts 134°
2026-05-08 21:44 25.16381 -77.60048 2847 ft 224 kts 134°
2026-05-08 21:44 25.15305 -77.58843 2637 ft 220 kts 134°
2026-05-08 21:44 25.14281 -77.57699 2583 ft 195 kts 134°
2026-05-08 21:45 25.13369 -77.56680 2580 ft 181 kts 134°
2026-05-08 21:45 25.12489 -77.55697 2573 ft 180 kts 134°
2026-05-08 21:45 25.11618 -77.54723 2569 ft 167 kts 134°
2026-05-08 21:45 25.10837 -77.53853 2348 ft 153 kts 135°
2026-05-08 21:46 25.10123 -77.53059 2046 ft 140 kts 134°
2026-05-08 21:46 25.09477 -77.52341 1764 ft 125 kts 134°
2026-05-08 21:46 25.08869 -77.51672 1539 ft 129 kts 135°
2026-05-08 21:46 25.08219 -77.50945 1250 ft 132 kts 134°
2026-05-08 21:47 25.07590 -77.50255 1001 ft 127 kts 135°
2026-05-08 21:47 25.06968 -77.49565 661 ft 127 kts 135°
2026-05-08 21:47 25.06358 -77.48890 376 ft 126 kts 134°
2026-05-08 21:47 25.05736 -77.48198 186 ft 128 kts 134°
2026-05-08 21:48 25.05112 -77.47492 48 ft 130 kts 134°
2026-05-08 21:48 25.04494 -77.46803 28 ft 116 kts 134°
2026-05-08 21:48 25.04149 -77.46396 27 ft 37 kts 114°
2026-05-08 21:48 25.04096 -77.46167 27 ft 11 kts 69°
2026-05-08 21:49 25.04157 -77.46173 27 ft 12 kts 313°
2026-05-08 21:49 25.04230 -77.46254 27 ft 16 kts 316°
2026-05-08 21:49 25.04313 -77.46343 27 ft 16 kts 314°
2026-05-08 21:49 25.04388 -77.46426 27 ft 15 kts 315°
2026-05-08 21:50 25.04462 -77.46508 28 ft 14 kts 315°
2026-05-08 21:50 25.04534 -77.46587 28 ft 14 kts 314°
2026-05-08 21:50 25.04602 -77.46664 28 ft 13 kts 314°
2026-05-08 21:50 25.04670 -77.46735 28 ft 12 kts 327°
2026-05-08 21:51 25.04721 -77.46722 28 ft 7 kts 39°
2026-05-08 21:51 25.04759 -77.46684 28 ft 7 kts 43°
2026-05-08 21:51 25.04795 -77.46645 28 ft 7 kts 43°
2026-05-08 21:51 25.04834 -77.46615 28 ft 6 kts 12°
2026-05-08 21:52 25.04869 -77.46630 28 ft 1 kts 325°
2026-05-08 21:52 25.04878 -77.46637 28 ft 1 kts 325°
2026-05-08 21:52 25.04882 -77.46640 28 ft 0 kts 326°